Time,TemperatureF,DewpointF,PressureIn,WindDirection,WindDirectionDegrees,WindSpeedMPH,WindSpeedGustMPH,Humidity,HourlyPrecipIn,Conditions,Clouds,dailyrainin,SoftwareType,DateUTC
2013-03-08 00:08:00,66.1,62.8,30.03,SE,129,0.6,2.5,90,0.00,,,0.00,WSDL version 420,2013-03-07 13:08:00,
2013-03-08 00:18:00,66.1,63.3,30.03,WNW,300,0.0,2.0,91,0.00,,,0.00,WSDL version 420,2013-03-07 13:18:00,
2013-03-08 00:23:00,66.2,63.4,30.03,ESE,106,1.3,2.9,91,0.00,,,0.00,WSDL version 420,2013-03-07 13:23:00,
2013-03-08 00:28:00,66.1,63.5,30.03,ESE,106,0.3,2.9,91,0.00,,,0.00,WSDL version 420,2013-03-07 13:28:00,
2013-03-08 00:33:00,65.9,63.2,30.03,SE,125,0.0,1.6,91,0.00,,,0.00,WSDL version 420,2013-03-07 13:33:00,
2013-03-08 00:38:00,65.7,63.0,30.00,SE,138,0.0,1.3,91,0.00,,,0.00,WSDL version 420,2013-03-07 13:38:00,
2013-03-08 00:43:00,65.6,62.9,30.00,ESE,116,0.6,1.6,91,0.00,,,0.00,WSDL version 420,2013-03-07 13:43:00,
2013-03-08 00:48:00,65.5,62.9,30.00,SSE,151,1.1,2.9,92,0.00,,,0.00,WSDL version 420,2013-03-07 13:48:00,
2013-03-08 00:53:00,65.5,63.2,30.03,ESE,121,0.0,2.9,92,0.00,,,0.00,WSDL version 420,2013-03-07 13:53:00,
2013-03-08 00:58:00,65.3,63.0,30.03,South,170,0.0,1.6,92,0.00,,,0.00,WSDL version 420,2013-03-07 13:58:00,
2013-03-08 01:03:00,65.1,62.8,30.03,ESE,113,0.0,1.6,92,0.00,,,0.00,WSDL version 420,2013-03-07 14:03:00,
2013-03-08 01:08:00,64.9,62.5,30.00,SE,128,0.0,0.0,92,0.00,,,0.00,WSDL version 420,2013-03-07 14:08:00,
2013-03-08 01:13:00,64.6,62.3,30.00,ENE,68,0.0,1.3,92,0.00,,,0.00,WSDL version 420,2013-03-07 14:13:00,
2013-03-08 01:18:00,64.5,62.5,30.00,East,96,0.0,1.3,93,0.00,,,0.00,WSDL version 420,2013-03-07 14:18:00,
2013-03-08 01:23:00,64.4,62.4,30.03,WNW,296,0.1,1.3,93,0.00,,,0.00,WSDL version 420,2013-03-07 14:23:00,
2013-03-08 01:28:00,-999.0,-99.9,30.03,NW,319,0.0,1.1,-999,0.00,,,0.00,WSDL version 420,2013-03-07 14:28:00,
2013-03-08 01:33:00,64.0,62.4,30.03,NW,315,0.0,0.0,94,0.00,,,0.00,WSDL version 420,2013-03-07 14:33:00,
2013-03-08 01:38:00,64.1,62.5,30.03,WNW,293,0.0,0.0,94,0.00,,,0.00,WSDL version 420,2013-03-07 14:38:00,
2013-03-08 01:43:00,64.0,62.4,30.03,WNW,293,0.0,0.0,95,0.00,,,0.00,WSDL version 420,2013-03-07 14:43:00,
2013-03-08 01:48:00,63.7,62.1,30.03,WNW,293,0.0,0.0,94,0.00,,,0.00,WSDL version 420,2013-03-07 14:48:00,
2013-03-08 01:53:00,63.5,62.2,30.03,WNW,293,0.0,0.0,96,0.00,,,0.00,WSDL version 420,2013-03-07 14:53:00,
2013-03-08 01:58:00,63.3,62.0,30.03,WNW,293,0.0,0.0,96,0.00,,,0.00,WSDL version 420,2013-03-07 14:58:00,
2013-03-08 02:03:00,63.3,62.0,30.03,WNW,293,0.0,0.0,96,0.00,,,0.00,WSDL version 420,2013-03-07 15:03:00,
2013-03-08 02:13:00,63.1,62.2,30.03,WNW,293,0.0,0.0,97,-99.99,,,-99.99,WSDL version 420,2013-03-07 15:13:00,
2013-03-08 02:18:00,63.0,62.0,30.03,WNW,293,0.0,0.0,97,0.00,,,0.00,WSDL version 420,2013-03-07 15:18:00,
2013-03-08 02:28:00,63.0,62.0,30.03,WNW,293,0.0,0.0,97,0.00,,,0.00,WSDL version 420,2013-03-07 15:28:00,
2013-03-08 02:33:00,62.8,61.9,30.03,WNW,293,0.0,0.0,97,0.00,,,0.00,WSDL version 420,2013-03-07 15:33:00,
2013-03-08 02:38:00,62.8,62.1,30.03,WNW,293,0.0,0.0,98,0.00,,,0.00,WSDL version 420,2013-03-07 15:38:00,
2013-03-08 02:43:00,62.7,61.9,30.03,WNW,293,0.0,0.0,98,0.00,,,0.00,WSDL version 420,2013-03-07 15:43:00,
2013-03-08 02:48:00,62.8,62.2,30.03,WNW,293,0.0,0.0,98,0.00,,,0.00,WSDL version 420,2013-03-07 15:48:00,
2013-03-08 02:53:00,62.5,61.9,30.03,WNW,293,0.0,0.0,98,0.00,,,0.00,WSDL version 420,2013-03-07 15:53:00,
2013-03-08 02:58:00,62.5,61.9,30.03,WNW,293,0.0,0.0,98,0.00,,,0.00,WSDL version 420,2013-03-07 15:58:00,
2013-03-08 03:03:00,62.4,61.9,30.03,WNW,283,0.0,0.0,99,0.00,,,0.00,WSDL version 420,2013-03-07 16:03:00,
2013-03-08 03:08:00,62.4,62.1,30.03,West,270,0.0,0.0,99,0.00,,,0.00,WSDL version 420,2013-03-07 16:08:00,
2013-03-08 03:18:00,62.4,62.1,30.03,West,270,0.0,0.0,99,-99.99,,,-99.99,WSDL version 420,2013-03-07 16:18:00,
2013-03-08 03:23:00,62.2,61.9,30.03,West,270,0.0,0.0,99,0.00,,,0.00,WSDL version 420,2013-03-07 16:23:00,
2013-03-08 03:28:00,62.4,62.1,30.03,NW,315,0.0,0.9,99,0.00,,,0.00,WSDL version 420,2013-03-07 16:28:00,
2013-03-08 03:33:00,62.4,62.1,30.03,NNW,331,0.0,0.9,99,0.00,,,0.00,WSDL version 420,2013-03-07 16:33:00,
2013-03-08 03:38:00,62.3,62.0,30.00,NW,315,0.0,0.0,99,-99.99,,,-99.99,WSDL version 420,2013-03-07 16:38:00,
2013-03-08 03:43:00,62.2,61.9,30.00,NW,315,0.0,0.0,99,0.00,,,0.00,WSDL version 420,2013-03-07 16:43:00,
2013-03-08 03:48:00,62.0,61.7,30.00,SSE,158,0.0,0.0,99,0.00,,,0.00,WSDL version 420,2013-03-07 16:48:00,
2013-03-08 03:53:00,62.1,62.1,30.03,NNW,331,0.0,0.0,100,0.00,,,0.00,WSDL version 420,2013-03-07 16:53:00,
2013-03-08 03:58:00,62.1,62.1,30.03,WNW,295,0.0,0.9,100,0.00,,,0.00,WSDL version 420,2013-03-07 16:58:00,
2013-03-08 04:03:00,62.0,62.0,30.03,West,270,0.0,0.9,100,0.00,,,0.00,WSDL version 420,2013-03-07 17:03:00,
2013-03-08 04:13:00,61.8,61.8,30.03,West,270,0.0,0.0,100,0.00,,,0.00,WSDL version 420,2013-03-07 17:13:00,
2013-03-08 04:18:00,61.8,61.8,30.03,West,270,0.0,0.0,100,0.00,,,0.00,WSDL version 420,2013-03-07 17:18:00,
2013-03-08 04:23:00,61.5,61.5,30.03,West,270,0.0,0.0,100,0.00,,,0.00,WSDL version 420,2013-03-07 17:23:00,
2013-03-08 04:28:00,61.2,61.2,30.03,West,270,0.0,0.0,100,0.00,,,0.00,WSDL version 420,2013-03-07 17:28:00,
2013-03-08 04:38:00,61.2,61.2,30.03,West,270,0.0,0.0,100,0.00,,,0.00,WSDL version 420,2013-03-07 17:38:00,
2013-03-08 04:43:00,61.2,61.2,30.03,West,270,0.0,0.0,100,0.00,,,0.00,WSDL version 420,2013-03-07 17:43:00,
2013-03-08 04:48:00,61.2,61.2,30.03,West,270,0.0,0.0,100,0.00,,,0.00,WSDL version 420,2013-03-07 17:48:00,
2013-03-08 04:58:00,61.4,61.4,30.03,West,270,0.0,0.0,100,0.00,,,0.00,WSDL version 420,2013-03-07 17:58:00,
2013-03-08 05:03:00,61.3,61.3,30.03,West,270,0.0,0.0,100,0.00,,,0.00,WSDL version 420,2013-03-07 18:03:00,
2013-03-08 05:08:00,61.4,61.4,30.03,West,270,0.0,0.0,100,-99.99,,,-99.99,WSDL version 420,2013-03-07 18:08:00,
2013-03-08 05:13:00,61.3,61.3,30.03,West,270,0.0,0.0,100,0.00,,,0.00,WSDL version 420,2013-03-07 18:13:00,
2013-03-08 05:18:00,61.1,61.1,30.03,West,270,0.0,0.0,100,0.00,,,0.00,WSDL version 420,2013-03-07 18:18:00,
2013-03-08 05:23:00,60.9,60.9,30.03,West,270,0.0,0.0,100,0.00,,,0.00,WSDL version 420,2013-03-07 18:23:00,
2013-03-08 05:28:00,60.8,60.8,30.03,West,270,0.0,0.0,100,-99.99,,,-99.99,WSDL version 420,2013-03-07 18:28:00,
2013-03-08 05:33:00,60.6,60.6,30.03,West,270,0.0,0.0,100,0.00,,,0.00,WSDL version 420,2013-03-07 18:33:00,
2013-03-08 05:38:00,60.5,60.5,30.03,West,270,0.0,0.0,100,0.00,,,0.00,WSDL version 420,2013-03-07 18:38:00,
2013-03-08 05:43:00,60.4,60.4,30.03,West,270,0.0,0.0,100,0.00,,,0.00,WSDL version 420,2013-03-07 18:43:00,
2013-03-08 05:48:00,60.4,60.4,30.03,West,270,0.0,0.0,100,0.00,,,0.00,WSDL version 420,2013-03-07 18:48:00,
2013-03-08 05:53:00,60.4,60.4,30.06,West,270,0.0,0.0,100,0.00,,,0.00,WSDL version 420,2013-03-07 18:53:00,
2013-03-08 05:58:00,60.4,60.4,30.06,West,270,0.0,0.0,100,0.00,,,0.00,WSDL version 420,2013-03-07 18:58:00,
2013-03-08 06:03:00,60.6,60.6,30.06,West,270,0.0,0.0,100,0.00,,,0.00,WSDL version 420,2013-03-07 19:03:00,
2013-03-08 06:08:00,60.6,60.6,30.03,West,270,0.0,0.0,100,0.00,,,0.00,WSDL version 420,2013-03-07 19:08:00,
2013-03-08 06:13:00,60.6,60.6,30.03,West,270,0.0,0.0,100,0.00,,,0.00,WSDL version 420,2013-03-07 19:13:00,
2013-03-08 06:18:00,60.6,60.6,30.03,SW,219,0.0,0.0,100,0.00,,,0.00,WSDL version 420,2013-03-07 19:18:00,
2013-03-08 06:23:00,60.8,60.8,30.00,SE,135,0.0,0.0,100,0.00,,,0.00,WSDL version 420,2013-03-07 19:23:00,
2013-03-08 06:28:00,60.8,60.8,30.00,SE,135,0.0,0.0,100,0.00,,,0.00,WSDL version 420,2013-03-07 19:28:00,
2013-03-08 06:35:00,60.7,60.7,30.00,SE,135,0.0,0.0,100,0.00,,,0.00,WSDL version 420,2013-03-07 19:35:00,
2013-03-08 06:40:00,60.6,60.6,30.03,SE,135,0.0,0.0,100,0.00,,,0.00,WSDL version 420,2013-03-07 19:40:00,
2013-03-08 06:45:00,60.6,60.6,30.03,SE,135,0.0,0.0,100,0.00,,,0.00,WSDL version 420,2013-03-07 19:45:00,
2013-03-08 06:50:00,60.6,60.6,30.03,SE,135,0.0,0.0,100,0.00,,,0.00,WSDL version 420,2013-03-07 19:50:00,
2013-03-08 06:55:00,60.8,60.8,30.03,SE,135,0.0,0.0,100,0.00,,,0.00,WSDL version 420,2013-03-07 19:55:00,
2013-03-08 07:00:00,61.0,61.0,30.03,SE,135,0.0,0.0,100,-99.99,,,-99.99,WSDL version 420,2013-03-07 20:00:00,
2013-03-08 07:10:00,60.8,60.8,30.03,SE,135,0.0,0.0,100,0.00,,,0.00,WSDL version 420,2013-03-07 20:10:00,
2013-03-08 07:15:00,60.9,60.9,30.03,SE,135,0.0,0.0,100,0.00,,,0.00,WSDL version 420,2013-03-07 20:15:00,
2013-03-08 07:20:00,61.0,61.0,30.03,SE,135,0.0,0.0,100,0.00,,,0.00,WSDL version 420,2013-03-07 20:20:00,
2013-03-08 07:25:00,61.0,61.0,30.06,SE,135,0.0,0.0,100,0.00,,,0.00,WSDL version 420,2013-03-07 20:25:00,
2013-03-08 07:30:00,61.2,61.2,30.06,SE,135,0.0,0.0,100,0.00,,,0.00,WSDL version 420,2013-03-07 20:30:00,
2013-03-08 07:35:00,61.4,61.4,30.06,SSE,164,0.0,0.0,100,0.00,,,0.00,WSDL version 420,2013-03-07 20:35:00,
2013-03-08 07:40:00,62.1,62.1,30.06,NE,45,0.0,0.0,100,-99.99,,,-99.99,WSDL version 420,2013-03-07 20:40:00,
2013-03-08 07:45:00,64.7,64.7,30.06,NE,45,0.0,0.0,100,0.00,,,0.00,WSDL version 420,2013-03-07 20:45:00,
2013-03-08 07:50:00,66.7,66.7,30.06,NE,45,0.0,0.0,100,0.00,,,0.00,WSDL version 420,2013-03-07 20:50:00,
2013-03-08 07:55:00,68.1,68.1,30.06,East,100,0.0,0.0,100,0.00,,,0.00,WSDL version 420,2013-03-07 20:55:00,
2013-03-08 08:00:00,68.8,68.8,30.06,SSE,154,0.0,0.0,100,0.00,,,0.00,WSDL version 420,2013-03-07 21:00:00,
2013-03-08 08:05:00,69.7,69.7,30.06,SE,146,0.6,1.3,100,0.00,,,0.00,WSDL version 420,2013-03-07 21:05:00,
2013-03-08 08:10:00,69.8,69.8,30.06,East,90,0.4,1.6,100,0.00,,,0.00,WSDL version 420,2013-03-07 21:10:00,
2013-03-08 08:20:00,69.6,69.5,30.06,ESE,109,0.0,2.2,100,0.00,,,0.00,WSDL version 420,2013-03-07 21:20:00,
2013-03-08 08:25:00,70.4,70.4,30.06,ESE,118,0.2,2.2,100,0.00,,,0.00,WSDL version 420,2013-03-07 21:25:00,
2013-03-08 08:30:00,71.4,71.3,30.06,ENE,68,1.2,2.5,99,0.00,,,0.00,WSDL version 420,2013-03-07 21:30:00,
2013-03-08 08:35:00,72.2,71.8,30.06,NW,318,2.0,3.4,98,0.00,,,0.00,WSDL version 420,2013-03-07 21:35:00,
2013-03-08 08:40:00,73.2,71.6,30.09,NE,55,1.6,3.4,93,0.00,,,0.00,WSDL version 420,2013-03-07 21:40:00,
2013-03-08 08:45:00,74.3,70.3,30.09,NNW,338,2.0,3.6,84,0.00,,,0.00,WSDL version 420,2013-03-07 21:45:00,
2013-03-08 08:50:00,75.3,69.3,30.09,East,86,1.9,3.6,78,0.00,,,0.00,WSDL version 420,2013-03-07 21:50:00,
2013-03-08 08:55:00,75.4,67.1,30.09,SSE,155,0.8,3.1,74,0.00,,,0.00,WSDL version 420,2013-03-07 21:55:00,
2013-03-08 09:00:00,75.7,66.7,30.09,North,360,1.0,3.1,74,0.00,,,0.00,WSDL version 420,2013-03-07 22:00:00,
2013-03-08 09:05:00,76.5,65.7,30.09,NE,50,3.0,4.0,68,0.00,,,0.00,WSDL version 420,2013-03-07 22:05:00,
2013-03-08 09:10:00,77.1,64.7,30.09,East,86,2.9,4.0,63,-99.99,,,-99.99,WSDL version 420,2013-03-07 22:10:00,
2013-03-08 09:15:00,77.5,64.1,30.09,ENE,72,2.8,4.0,63,0.00,,,0.00,WSDL version 420,2013-03-07 22:15:00,
2013-03-08 09:20:00,78.1,63.5,30.09,NNW,334,2.5,4.3,61,0.00,,,0.00,WSDL version 420,2013-03-07 22:20:00,
2013-03-08 09:25:00,78.8,62.8,30.09,ENE,65,2.6,4.7,57,0.00,,,0.00,WSDL version 420,2013-03-07 22:25:00,
2013-03-08 09:30:00,78.5,62.0,30.09,NNE,20,2.5,4.9,58,0.00,,,0.00,WSDL version 420,2013-03-07 22:30:00,
2013-03-08 09:35:00,78.5,62.1,30.09,NE,49,3.3,5.6,57,0.00,,,0.00,WSDL version 420,2013-03-07 22:35:00,
2013-03-08 09:40:00,78.4,61.5,30.09,ENE,73,3.5,6.3,55,0.00,,,0.00,WSDL version 420,2013-03-07 22:40:00,
2013-03-08 09:50:00,80.2,63.4,30.09,North,8,2.5,4.7,57,-99.99,,,-99.99,WSDL version 420,2013-03-07 22:50:00,
2013-03-08 09:55:00,80.5,62.0,30.09,ENE,68,3.5,5.6,53,0.00,,,0.00,WSDL version 420,2013-03-07 22:55:00,
2013-03-08 10:00:00,80.2,61.2,30.09,NNW,344,3.3,5.8,53,0.00,,,0.00,WSDL version 420,2013-03-07 23:00:00,
2013-03-08 10:05:00,81.4,62.5,30.09,ENE,64,2.7,5.8,51,0.00,,,0.00,WSDL version 420,2013-03-07 23:05:00,
2013-03-08 10:10:00,80.7,61.2,30.09,SE,132,3.9,9.8,52,0.00,,,0.00,WSDL version 420,2013-03-07 23:10:00,
2013-03-08 10:17:00,81.1,62.2,30.09,ENE,68,2.8,9.8,51,0.00,,,0.00,WSDL version 420,2013-03-07 23:17:00,
2013-03-08 10:22:00,80.1,62.1,30.09,East,98,2.8,6.5,54,0.00,,,0.00,WSDL version 420,2013-03-07 23:22:00,
2013-03-08 10:27:00,79.4,62.3,30.09,NE,53,5.0,10.5,57,0.00,,,0.00,WSDL version 420,2013-03-07 23:27:00,
2013-03-08 10:32:00,78.5,62.9,30.09,ENE,77,5.0,10.5,60,0.00,,,0.00,WSDL version 420,2013-03-07 23:32:00,
2013-03-08 10:37:00,78.5,63.9,30.09,East,90,3.5,8.1,59,0.00,,,0.00,WSDL version 420,2013-03-07 23:37:00,
2013-03-08 10:42:00,78.8,63.6,30.09,East,90,5.2,9.6,60,0.00,,,0.00,WSDL version 420,2013-03-07 23:42:00,
2013-03-08 10:47:00,78.1,63.6,30.09,East,83,3.9,9.6,61,0.00,,,0.00,WSDL version 420,2013-03-07 23:47:00,
2013-03-08 10:52:00,78.5,63.2,30.09,East,83,4.1,7.4,60,0.00,,,0.00,WSDL version 420,2013-03-07 23:52:00,
2013-03-08 10:57:00,79.1,63.8,30.09,NNE,18,3.9,7.4,60,0.00,,,0.00,WSDL version 420,2013-03-07 23:57:00,
2013-03-08 11:02:00,79.7,64.5,30.09,ENE,74,4.1,7.4,59,0.00,,,0.00,WSDL version 420,2013-03-08 00:02:00,
2013-03-08 11:12:00,79.5,63.0,30.09,ENE,68,5.4,7.6,56,0.00,,,0.00,WSDL version 420,2013-03-08 00:12:00,
2013-03-08 11:17:00,79.9,62.7,30.09,ENE,73,3.2,6.3,54,0.00,,,0.00,WSDL version 420,2013-03-08 00:17:00,
2013-03-08 11:22:00,80.1,62.4,30.09,NNE,23,3.5,8.5,53,0.00,,,0.00,WSDL version 420,2013-03-08 00:22:00,
2013-03-08 11:32:00,80.9,62.3,30.09,ENE,68,3.4,8.5,52,0.00,,,0.00,WSDL version 420,2013-03-08 00:32:00,
2013-03-08 11:37:00,81.2,62.0,30.12,NNW,332,4.1,7.2,51,0.00,,,0.00,WSDL version 420,2013-03-08 00:37:00,
2013-03-08 11:42:00,81.5,61.1,30.12,ENE,68,2.7,7.2,50,0.00,,,0.00,WSDL version 420,2013-03-08 00:42:00,
2013-03-08 11:47:00,81.7,61.7,30.12,East,100,1.9,6.3,49,0.00,,,0.00,WSDL version 420,2013-03-08 00:47:00,
2013-03-08 11:52:00,82.2,60.9,30.09,ENE,60,4.1,6.5,48,-99.99,,,-99.99,WSDL version 420,2013-03-08 00:52:00,
2013-03-08 11:57:00,82.2,60.6,30.09,ENE,59,3.6,8.9,48,0.00,,,0.00,WSDL version 420,2013-03-08 00:57:00,
2013-03-08 12:02:00,82.4,60.3,30.09,East,90,3.3,8.9,46,0.00,,,0.00,WSDL version 420,2013-03-08 01:02:00,
2013-03-08 12:07:00,82.8,60.3,30.12,East,90,2.4,6.5,47,0.00,,,0.00,WSDL version 420,2013-03-08 01:07:00,
2013-03-08 12:12:00,83.5,60.6,30.12,SE,132,3.3,4.9,45,-99.99,,,-99.99,WSDL version 420,2013-03-08 01:12:00,
2013-03-08 12:17:00,84.8,60.9,30.12,East,101,2.6,4.9,44,0.00,,,0.00,WSDL version 420,2013-03-08 01:17:00,
2013-03-08 12:22:00,83.8,59.1,30.09,North,6,5.1,7.6,44,0.00,,,0.00,WSDL version 420,2013-03-08 01:22:00,
2013-03-08 12:27:00,83.5,59.3,30.09,NE,56,3.6,7.6,45,0.00,,,0.00,WSDL version 420,2013-03-08 01:27:00,
2013-03-08 12:32:00,83.3,58.6,30.09,ENE,71,6.4,7.8,42,-99.99,,,-99.99,WSDL version 420,2013-03-08 01:32:00,
2013-03-08 12:37:00,83.5,59.3,30.09,East,90,3.7,8.1,44,0.00,,,0.00,WSDL version 420,2013-03-08 01:37:00,
2013-03-08 12:42:00,83.0,58.7,30.09,ENE,68,5.0,8.1,44,0.00,,,0.00,WSDL version 420,2013-03-08 01:42:00,
2013-03-08 12:47:00,84.1,59.5,30.09,WSW,256,4.1,9.4,43,0.00,,,0.00,WSDL version 420,2013-03-08 01:47:00,
2013-03-08 12:52:00,83.7,58.7,30.09,NNE,31,4.7,9.4,42,-99.99,,,-99.99,WSDL version 420,2013-03-08 01:52:00,
2013-03-08 12:57:00,82.9,58.0,30.09,NE,45,3.8,8.7,44,0.00,,,0.00,WSDL version 420,2013-03-08 01:57:00,
2013-03-08 13:02:00,83.5,58.5,30.09,NNE,26,3.2,7.6,43,0.00,,,0.00,WSDL version 420,2013-03-08 02:02:00,
2013-03-08 13:07:00,84.2,58.8,30.09,ENE,64,4.8,7.6,42,0.00,,,0.00,WSDL version 420,2013-03-08 02:07:00,
2013-03-08 13:12:00,83.4,58.1,30.09,East,86,2.6,7.6,42,0.00,,,0.00,WSDL version 420,2013-03-08 02:12:00,
2013-03-08 13:17:00,85.6,59.9,30.09,West,273,1.3,7.4,41,0.00,,,0.00,WSDL version 420,2013-03-08 02:17:00,
2013-03-08 13:22:00,87.0,59.8,30.06,ENE,68,4.9,7.8,39,0.00,,,0.00,WSDL version 420,2013-03-08 02:22:00,
2013-03-08 13:29:00,87.3,61.0,30.06,East,96,2.3,7.8,41,0.00,,,0.00,WSDL version 420,2013-03-08 02:29:00,
2013-03-08 13:34:00,88.2,60.6,30.06,East,82,2.7,7.8,38,0.00,,,0.00,WSDL version 420,2013-03-08 02:34:00,
2013-03-08 13:39:00,87.3,59.8,30.06,ENE,64,4.4,7.8,40,0.00,,,0.00,WSDL version 420,2013-03-08 02:39:00,
2013-03-08 13:44:00,88.8,61.6,30.06,ESE,104,3.5,7.8,40,0.00,,,0.00,WSDL version 420,2013-03-08 02:44:00,
2013-03-08 13:49:00,88.8,61.2,30.06,SE,125,3.6,9.4,40,0.00,,,0.00,WSDL version 420,2013-03-08 02:49:00,
2013-03-08 13:54:00,88.5,61.1,30.06,WSW,239,2.5,9.4,40,0.00,,,0.00,WSDL version 420,2013-03-08 02:54:00,
2013-03-08 13:59:00,88.8,61.2,30.06,SE,141,3.5,6.0,39,0.00,,,0.00,WSDL version 420,2013-03-08 02:59:00,
2013-03-08 14:04:00,89.0,61.6,30.06,ESE,113,3.2,6.5,40,-99.99,,,-99.99,WSDL version 420,2013-03-08 03:04:00,
2013-03-08 14:09:00,89.7,61.5,30.06,NNE,33,2.9,12.1,38,0.00,,,0.00,WSDL version 420,2013-03-08 03:09:00,
2013-03-08 14:14:00,88.6,58.8,30.06,NE,45,4.9,12.1,38,0.00,,,0.00,WSDL version 420,2013-03-08 03:14:00,
2013-03-08 14:19:00,88.8,60.0,30.06,NNE,23,4.3,8.9,38,0.00,,,0.00,WSDL version 420,2013-03-08 03:19:00,
2013-03-08 14:24:00,86.7,57.5,30.06,ESE,104,7.2,9.8,38,0.00,,,0.00,WSDL version 420,2013-03-08 03:24:00,
2013-03-08 14:29:00,86.5,58.6,30.06,NNE,14,6.0,9.8,39,0.00,,,0.00,WSDL version 420,2013-03-08 03:29:00,
2013-03-08 14:34:00,87.4,59.9,30.06,NE,49,6.7,9.4,40,0.00,,,0.00,WSDL version 420,2013-03-08 03:34:00,
2013-03-08 14:39:00,85.2,58.3,30.06,ENE,58,5.4,8.7,39,0.00,,,0.00,WSDL version 420,2013-03-08 03:39:00,
2013-03-08 14:44:00,85.0,58.0,30.06,NE,48,4.9,8.7,40,0.00,,,0.00,WSDL version 420,2013-03-08 03:44:00,
2013-03-08 14:49:00,86.2,60.4,30.06,North,360,2.6,8.5,42,0.00,,,0.00,WSDL version 420,2013-03-08 03:49:00,
2013-03-08 14:54:00,86.6,60.8,30.06,SE,127,3.7,8.1,42,0.00,,,0.00,WSDL version 420,2013-03-08 03:54:00,
2013-03-08 14:59:00,85.7,61.3,30.06,SE,135,3.2,8.5,44,0.00,,,0.00,WSDL version 420,2013-03-08 03:59:00,
2013-03-08 15:04:00,88.5,63.4,30.06,NNE,17,1.8,8.5,42,0.00,,,0.00,WSDL version 420,2013-03-08 04:04:00,
2013-03-08 15:09:00,89.5,62.0,30.06,ESE,104,3.9,8.1,40,0.00,,,0.00,WSDL version 420,2013-03-08 04:09:00,
2013-03-08 15:14:00,88.4,60.2,30.06,ESE,105,4.1,8.1,38,0.00,,,0.00,WSDL version 420,2013-03-08 04:14:00,
2013-03-08 15:21:00,87.7,59.7,30.06,NE,48,3.1,7.8,39,0.00,,,0.00,WSDL version 420,2013-03-08 04:21:00,
2013-03-08 15:26:00,88.6,60.0,30.03,SE,145,4.0,6.5,38,0.00,,,0.00,WSDL version 420,2013-03-08 04:26:00,
2013-03-08 15:31:00,88.6,59.7,30.03,SSE,150,3.0,5.6,38,0.00,,,0.00,WSDL version 420,2013-03-08 04:31:00,
2013-03-08 15:36:00,88.8,59.2,30.03,East,83,2.7,7.8,37,0.00,,,0.00,WSDL version 420,2013-03-08 04:36:00,
2013-03-08 15:41:00,89.0,58.7,30.03,East,93,3.5,8.5,35,0.00,,,0.00,WSDL version 420,2013-03-08 04:41:00,
2013-03-08 15:46:00,88.3,58.6,30.03,North,357,3.5,8.5,37,0.00,,,0.00,WSDL version 420,2013-03-08 04:46:00,
2013-03-08 15:51:00,88.9,58.3,30.03,East,98,4.2,10.5,35,0.00,,,0.00,WSDL version 420,2013-03-08 04:51:00,
2013-03-08 15:56:00,87.7,57.2,30.03,NE,53,5.3,10.5,37,0.00,,,0.00,WSDL version 420,2013-03-08 04:56:00,
2013-03-08 16:01:00,88.6,58.8,30.03,ENE,65,4.3,10.3,36,0.00,,,0.00,WSDL version 420,2013-03-08 05:01:00,
2013-03-08 16:11:00,89.6,58.7,30.03,ESE,116,3.6,8.1,35,0.00,,,0.00,WSDL version 420,2013-03-08 05:11:00,
2013-03-08 16:16:00,90.4,58.5,30.03,NNE,16,4.4,10.5,34,0.00,,,0.00,WSDL version 420,2013-03-08 05:16:00,
2013-03-08 16:21:00,87.9,56.3,30.03,NNE,32,4.5,10.5,35,0.00,,,0.00,WSDL version 420,2013-03-08 05:21:00,
2013-03-08 16:26:00,85.4,56.9,30.03,ENE,71,3.1,11.0,39,0.00,,,0.00,WSDL version 420,2013-03-08 05:26:00,
2013-03-08 16:31:00,85.1,57.6,30.03,ENE,70,4.0,11.0,40,0.00,,,0.00,WSDL version 420,2013-03-08 05:31:00,
2013-03-08 16:36:00,84.2,57.5,30.03,NNE,17,5.3,8.1,41,0.00,,,0.00,WSDL version 420,2013-03-08 05:36:00,
2013-03-08 16:41:00,85.0,58.2,30.03,NE,39,3.6,8.1,40,0.00,,,0.00,WSDL version 420,2013-03-08 05:41:00,
2013-03-08 16:46:00,84.1,57.9,30.03,NNE,19,3.7,8.5,42,0.00,,,0.00,WSDL version 420,2013-03-08 05:46:00,
2013-03-08 16:51:00,83.9,58.8,30.03,NE,42,5.4,9.6,43,0.00,,,0.00,WSDL version 420,2013-03-08 05:51:00,
2013-03-08 16:56:00,82.6,58.2,30.03,ENE,71,3.5,10.1,45,0.00,,,0.00,WSDL version 420,2013-03-08 05:56:00,
2013-03-08 17:01:00,80.9,58.4,30.03,NW,318,3.9,10.3,47,0.00,,,0.00,WSDL version 420,2013-03-08 06:01:00,
2013-03-08 17:06:00,80.8,59.3,30.03,NE,51,4.5,10.3,48,0.00,,,0.00,WSDL version 420,2013-03-08 06:06:00,
2013-03-08 17:11:00,79.5,60.1,30.03,East,87,5.8,10.1,52,0.00,,,0.00,WSDL version 420,2013-03-08 06:11:00,
2013-03-08 17:16:00,78.9,61.1,30.03,East,80,4.3,10.1,55,0.00,,,0.00,WSDL version 420,2013-03-08 06:16:00,
2013-03-08 17:21:00,78.2,61.4,30.03,NE,48,2.2,8.1,58,0.00,,,0.00,WSDL version 420,2013-03-08 06:21:00,
2013-03-08 17:26:00,77.7,61.7,30.03,NE,49,2.7,8.1,59,0.00,,,0.00,WSDL version 420,2013-03-08 06:26:00,
2013-03-08 17:31:00,77.4,62.2,30.03,ENE,58,4.7,9.2,60,0.00,,,0.00,WSDL version 420,2013-03-08 06:31:00,
2013-03-08 17:36:00,77.2,62.4,30.03,ENE,75,3.8,9.2,61,0.00,,,0.00,WSDL version 420,2013-03-08 06:36:00,
2013-03-08 17:41:00,78.0,62.8,30.03,NE,53,3.5,8.7,59,-99.99,,,-99.99,WSDL version 420,2013-03-08 06:41:00,
2013-03-08 17:46:00,78.1,62.1,30.03,ENE,71,4.5,8.7,58,0.00,,,0.00,WSDL version 420,2013-03-08 06:46:00,
2013-03-08 17:51:00,77.6,61.9,30.03,NE,45,4.8,10.5,59,0.00,,,0.00,WSDL version 420,2013-03-08 06:51:00,
2013-03-08 17:56:00,76.7,61.8,30.03,NE,51,2.2,10.5,60,0.00,,,0.00,WSDL version 420,2013-03-08 06:56:00,
2013-03-08 18:01:00,76.5,62.0,30.03,NE,45,2.8,6.5,61,0.00,,,0.00,WSDL version 420,2013-03-08 07:01:00,
2013-03-08 18:06:00,76.1,62.3,30.03,South,177,3.0,6.5,63,0.00,,,0.00,WSDL version 420,2013-03-08 07:06:00,
2013-03-08 18:11:00,75.7,61.9,30.06,East,93,3.0,6.5,63,0.00,,,0.00,WSDL version 420,2013-03-08 07:11:00,
2013-03-08 18:16:00,75.5,62.0,30.06,ENE,59,3.4,6.0,63,0.00,,,0.00,WSDL version 420,2013-03-08 07:16:00,
2013-03-08 18:21:00,75.2,62.0,30.06,ENE,68,3.4,6.7,64,0.00,,,0.00,WSDL version 420,2013-03-08 07:21:00,
2013-03-08 18:26:00,75.0,62.0,30.03,NE,34,4.4,7.2,64,0.00,,,0.00,WSDL version 420,2013-03-08 07:26:00,
2013-03-08 18:31:00,74.8,62.0,30.03,NNE,19,3.6,11.0,65,0.00,,,0.00,WSDL version 420,2013-03-08 07:31:00,
2013-03-08 18:36:00,74.8,62.3,30.03,ESE,120,2.6,11.0,65,0.00,,,0.00,WSDL version 420,2013-03-08 07:36:00,
2013-03-08 18:41:00,74.8,62.2,30.06,SE,138,2.1,4.3,65,0.00,,,0.00,WSDL version 420,2013-03-08 07:41:00,
2013-03-08 18:46:00,74.6,62.1,30.06,NE,53,2.0,5.4,65,0.00,,,0.00,WSDL version 420,2013-03-08 07:46:00,
2013-03-08 18:51:00,74.3,61.7,30.06,North,5,2.1,5.4,65,0.00,,,0.00,WSDL version 420,2013-03-08 07:51:00,
2013-03-08 18:56:00,74.1,61.6,30.06,NNE,13,0.8,3.6,65,0.00,,,0.00,WSDL version 420,2013-03-08 07:56:00,
2013-03-08 19:01:00,73.9,61.6,30.06,SW,222,0.6,4.0,65,0.00,,,0.00,WSDL version 420,2013-03-08 08:01:00,
2013-03-08 19:06:00,73.6,61.2,30.06,NE,55,1.2,8.1,65,0.00,,,0.00,WSDL version 420,2013-03-08 08:06:00,
2013-03-08 19:11:00,73.3,61.3,30.06,East,90,1.9,8.1,67,0.00,,,0.00,WSDL version 420,2013-03-08 08:11:00,
2013-03-08 19:16:00,73.0,61.3,30.06,ENE,65,1.7,5.6,67,0.00,,,0.00,WSDL version 420,2013-03-08 08:16:00,
2013-03-08 19:21:00,72.8,61.1,30.06,South,186,0.6,3.4,67,0.00,,,0.00,WSDL version 420,2013-03-08 08:21:00,
2013-03-08 19:26:00,72.6,61.2,30.06,East,93,1.7,6.5,68,0.00,,,0.00,WSDL version 420,2013-03-08 08:26:00,
2013-03-08 19:31:00,72.4,61.1,30.06,ESE,109,0.4,6.5,67,0.00,,,0.00,WSDL version 420,2013-03-08 08:31:00,
2013-03-08 19:36:00,72.2,61.1,30.06,North,353,2.2,3.8,68,0.00,,,0.00,WSDL version 420,2013-03-08 08:36:00,
2013-03-08 19:41:00,-999.0,-99.9,30.06,NW,323,1.0,3.4,-999,0.00,,,0.00,WSDL version 420,2013-03-08 08:41:00,
2013-03-08 19:46:00,71.7,61.0,30.06,SSE,148,0.5,2.7,69,0.00,,,0.00,WSDL version 420,2013-03-08 08:46:00,
2013-03-08 19:51:00,71.4,60.7,30.06,NE,39,1.1,3.4,69,0.00,,,0.00,WSDL version 420,2013-03-08 08:51:00,
2013-03-08 19:56:00,71.2,60.9,30.06,South,180,0.0,3.4,70,0.00,,,0.00,WSDL version 420,2013-03-08 08:56:00,
2013-03-08 20:01:00,70.9,60.7,30.06,East,94,1.8,5.6,70,0.00,,,0.00,WSDL version 420,2013-03-08 09:01:00,
2013-03-08 20:06:00,71.0,61.5,30.06,East,90,1.3,5.6,72,0.00,,,0.00,WSDL version 420,2013-03-08 09:06:00,
2013-03-08 20:11:00,71.1,62.0,30.06,East,87,1.9,5.4,73,0.00,,,0.00,WSDL version 420,2013-03-08 09:11:00,
2013-03-08 20:16:00,71.1,62.9,30.06,NNE,31,3.4,6.0,76,0.00,,,0.00,WSDL version 420,2013-03-08 09:16:00,
2013-03-08 20:21:00,71.4,63.5,30.06,ENE,77,2.8,6.0,76,0.00,,,0.00,WSDL version 420,2013-03-08 09:21:00,
2013-03-08 20:26:00,71.4,63.7,30.09,ENE,64,3.1,7.2,77,0.00,,,0.00,WSDL version 420,2013-03-08 09:26:00,
2013-03-08 20:31:00,71.3,63.4,30.09,East,100,1.1,7.2,76,0.00,,,0.00,WSDL version 420,2013-03-08 09:31:00,
2013-03-08 20:36:00,71.2,63.4,30.09,ESE,113,1.9,6.3,76,0.00,,,0.00,WSDL version 420,2013-03-08 09:36:00,
2013-03-08 20:41:00,71.0,63.0,30.09,East,79,1.5,6.3,76,0.00,,,0.00,WSDL version 420,2013-03-08 09:41:00,
2013-03-08 20:46:00,70.8,63.3,30.09,ESE,113,1.5,3.1,77,0.00,,,0.00,WSDL version 420,2013-03-08 09:46:00,
2013-03-08 20:51:00,70.7,63.1,30.09,SE,127,1.5,2.9,77,0.00,,,0.00,WSDL version 420,2013-03-08 09:51:00,
2013-03-08 20:56:00,70.5,63.2,30.09,East,80,2.2,3.1,78,-99.99,,,-99.99,WSDL version 420,2013-03-08 09:56:00,
2013-03-08 21:01:00,70.5,63.3,30.09,SSE,160,1.2,3.1,78,0.00,,,0.00,WSDL version 420,2013-03-08 10:01:00,
2013-03-08 21:06:00,70.3,63.3,30.09,NE,55,1.9,4.0,79,0.00,,,0.00,WSDL version 420,2013-03-08 10:06:00,
2013-03-08 21:11:00,70.3,63.1,30.09,East,96,1.5,4.0,78,0.00,,,0.00,WSDL version 420,2013-03-08 10:11:00,
2013-03-08 21:16:00,70.2,63.3,30.09,East,79,1.4,3.1,79,0.00,,,0.00,WSDL version 420,2013-03-08 10:16:00,
2013-03-08 21:21:00,70.1,63.6,30.09,East,90,2.1,3.8,80,0.00,,,0.00,WSDL version 420,2013-03-08 10:21:00,
2013-03-08 21:26:00,70.0,63.4,30.09,ESE,116,0.5,3.8,79,0.00,,,0.00,WSDL version 420,2013-03-08 10:26:00,
2013-03-08 21:31:00,69.8,63.2,30.09,East,90,1.1,2.7,80,-99.99,,,-99.99,WSDL version 420,2013-03-08 10:31:00,
2013-03-08 21:36:00,69.7,63.4,30.09,ENE,61,2.3,3.6,81,0.00,,,0.00,WSDL version 420,2013-03-08 10:36:00,
2013-03-08 21:41:00,69.8,63.7,30.09,NE,42,0.5,3.6,81,0.00,,,0.00,WSDL version 420,2013-03-08 10:41:00,
2013-03-08 21:46:00,69.6,63.7,30.09,ESE,116,1.2,3.6,82,0.00,,,0.00,WSDL version 420,2013-03-08 10:46:00,
2013-03-08 21:51:00,69.7,63.8,30.09,ENE,74,2.1,4.3,82,0.00,,,0.00,WSDL version 420,2013-03-08 10:51:00,
2013-03-08 21:56:00,70.0,64.0,30.09,ENE,77,0.4,4.3,81,0.00,,,0.00,WSDL version 420,2013-03-08 10:56:00,
2013-03-08 22:01:00,70.0,63.9,30.09,East,87,1.3,2.9,81,0.00,,,0.00,WSDL version 420,2013-03-08 11:01:00,
2013-03-08 22:06:00,70.0,63.9,30.06,ENE,74,0.6,2.9,81,0.00,,,0.00,WSDL version 420,2013-03-08 11:06:00,
2013-03-08 22:11:00,70.0,63.9,30.06,SE,141,1.2,2.2,81,0.00,,,0.00,WSDL version 420,2013-03-08 11:11:00,
2013-03-08 22:16:00,70.0,64.1,30.06,SE,131,0.7,4.9,81,0.00,,,0.00,WSDL version 420,2013-03-08 11:16:00,
2013-03-08 22:21:00,70.3,64.7,30.09,East,80,2.0,5.4,82,0.00,,,0.00,WSDL version 420,2013-03-08 11:21:00,
2013-03-08 22:26:00,70.7,65.0,30.09,ESE,113,1.0,5.4,82,0.00,,,0.00,WSDL version 420,2013-03-08 11:26:00,
2013-03-08 22:31:00,70.8,64.8,30.09,SE,127,0.6,5.4,81,0.00,,,0.00,WSDL version 420,2013-03-08 11:31:00,
2013-03-08 22:36:00,70.9,65.0,30.09,East,87,2.8,4.9,82,0.00,,,0.00,WSDL version 420,2013-03-08 11:36:00,
2013-03-08 22:41:00,71.1,65.0,30.09,ENE,58,1.8,4.9,81,0.00,,,0.00,WSDL version 420,2013-03-08 11:41:00,
2013-03-08 22:46:00,71.1,65.0,30.09,ESE,105,0.6,4.3,81,0.00,,,0.00,WSDL version 420,2013-03-08 11:46:00,
2013-03-08 22:51:00,70.9,64.8,30.09,East,84,1.7,3.1,81,-99.99,,,-99.99,WSDL version 420,2013-03-08 11:51:00,
2013-03-08 22:56:00,70.9,65.1,30.09,ESE,122,2.0,3.1,82,0.00,,,0.00,WSDL version 420,2013-03-08 11:56:00,
2013-03-08 23:01:00,70.9,65.3,30.09,East,96,0.3,4.3,82,0.00,,,0.00,WSDL version 420,2013-03-08 12:01:00,
2013-03-08 23:06:00,70.7,65.0,30.09,East,83,1.0,4.3,82,0.00,,,0.00,WSDL version 420,2013-03-08 12:06:00,
2013-03-08 23:11:00,70.4,64.5,30.09,SSE,158,0.0,1.6,82,0.00,,,0.00,WSDL version 420,2013-03-08 12:11:00,
2013-03-08 23:16:00,70.0,64.3,30.09,SSE,158,0.0,1.6,82,0.00,,,0.00,WSDL version 420,2013-03-08 12:16:00,
2013-03-08 23:21:00,69.7,64.2,30.12,SE,141,0.4,1.6,83,-99.99,,,-99.99,WSDL version 420,2013-03-08 12:21:00,
2013-03-08 23:26:00,69.6,64.3,30.12,SE,135,0.0,1.6,83,0.00,,,0.00,WSDL version 420,2013-03-08 12:26:00,
2013-03-08 23:36:00,-999.0,-99.9,30.09,ESE,116,0.0,1.1,-999,0.00,,,0.00,WSDL version 420,2013-03-08 12:36:00,
2013-03-08 23:41:00,69.4,65.1,30.09,ESE,113,0.0,0.0,87,0.00,,,0.00,WSDL version 420,2013-03-08 12:41:00,
2013-03-08 23:46:00,69.4,65.3,30.09,East,87,0.3,1.1,87,0.00,,,0.00,WSDL version 420,2013-03-08 12:46:00,
2013-03-08 23:51:00,69.4,65.3,30.09,ESE,109,0.0,1.1,87,0.00,,,0.00,WSDL version 420,2013-03-08 12:51:00,
2013-03-08 23:56:00,69.3,65.3,30.09,ESE,122,0.1,2.0,88,0.00,,,0.00,WSDL version 420,2013-03-08 12:56:00,